Greenville, ME

3:42 PM EST on November 15, 2019 (GMT -0500)
Greenville

Weather History for KGNR - September, 2019

Change the Weather History Date:

Tuesday, September 24, 2019

  Actual Average (KMLT) Record (KMLT)
Temperature  
Mean Temperature 58 °F -  
Max Temperature 66 °F 61 °F 87 °F (2017)
Min Temperature 51 °F 41 °F 28 °F (1963)
Degree Days  
Heating Degree Days 8    
Growing Degree Days 8 (Base 50)    
Moisture  
Dew Point 56 °F    
Average Humidity 91    
Maximum Humidity 100    
Minimum Humidity 75    
Precipitation  
Precipitation 0.74 in - - ()
Sea Level Pressure  
Sea Level Pressure 29.66 in    
Wind  
Wind Speed 6 mph ()    
Max Wind Speed 13 mph    
Max Gust Speed 17 mph    
Averages and records for this station are not official NWS values.
T = Trace of Precipitation, MM = Missing Value Source: Averaged Metar Reports

Daily Weather History Graph

Daily Weather History Graph

Search for Another Location

Airport or City:

Astronomy

Sep. 24, 2019 Rise Set
Actual Time 6:27 AM EDT 6:32 PM EDT
Civil Twilight 5:57 AM EDT 7:01 PM EDT
Nautical Twilight 5:23 AM EDT 7:36 PM EDT
Astronomical Twilight 4:47 AM EDT 8:11 PM EDT
Moon 12:50 AM EDT (9/24) 4:32 PM EDT (9/24)
Length of Visible Light 13h 04m
Length of Day
12h 05m
Waning Crescent, 23% of the Moon is Illuminated
Sep 24
Waning Crescent
Sep 28
New
Oct 5
First Quarter
Oct 13
Full
Oct 21
Last Quarter

Hourly Weather History & Observations

Time (EDT) Temp. Dew Point Humidity Pressure Visibility Wind Dir Wind Speed Gust Speed Precip Events Conditions
12:56 AM 64.9 °F 64.0 °F 97% 29.60 in - North 8.1 mph - 0.22 in   Unknown
1:56 AM 64.0 °F 62.1 °F 93% 29.60 in - North 6.9 mph - 0.12 in   Unknown
2:56 AM 63.0 °F 61.0 °F 93% 29.57 in - ENE 3.5 mph - 0.04 in   Unknown
3:56 AM 63.0 °F 62.1 °F 97% 29.57 in - Calm Calm - N/A   Unknown
4:56 AM 62.1 °F 62.1 °F 100% 29.60 in - Calm Calm - N/A   Unknown
5:56 AM 61.0 °F 61.0 °F 100% 29.60 in - SSW 3.5 mph - N/A   Unknown
6:56 AM 61.0 °F 60.1 °F 97% 29.61 in - SE 3.5 mph - N/A   Unknown
7:56 AM 57.9 °F 57.0 °F 97% 29.63 in - NW 9.2 mph - 0.32 in   Unknown
8:56 AM 59.0 °F 57.9 °F 96% 29.64 in - NNW 12.7 mph - 0.01 in   Unknown
9:56 AM 60.1 °F 57.9 °F 93% 29.65 in - NW 8.1 mph - N/A   Unknown
10:56 AM 61.0 °F 57.9 °F 90% 29.65 in - NW 11.5 mph 17.3 mph N/A   Unknown
11:56 AM 64.9 °F 57.0 °F 75% 29.65 in - NNW 8.1 mph - N/A   Unknown
12:56 PM 64.0 °F 55.9 °F 75% 29.65 in - NW 9.2 mph - N/A   Unknown
1:56 PM 62.1 °F 55.9 °F 80% 29.66 in - North 9.2 mph - N/A   Unknown
2:56 PM 61.0 °F 55.0 °F 81% 29.65 in - North 8.1 mph - N/A   Unknown
3:56 PM 59.0 °F 55.0 °F 87% 29.66 in - NNW 8.1 mph - N/A   Unknown
4:56 PM 57.0 °F 53.1 °F 87% 29.68 in - NNW 9.2 mph - N/A   Unknown
5:56 PM - - N/A% - - North - - N/A   Unknown
6:00 PM - - N/A% - - North - - N/A   Unknown
6:56 PM 54.0 °F 52.0 °F 93% 29.72 in - North 8.1 mph - 0.02 in   Unknown
7:56 PM 53.1 °F 51.1 °F 93% 29.74 in - North 6.9 mph - N/A   Unknown
8:56 PM 52.0 °F 50.0 °F 93% 29.75 in - North 8.1 mph - N/A   Unknown
9:56 PM 52.0 °F 50.0 °F 93% 29.75 in - North 6.9 mph - 0.01 in   Unknown
10:56 PM 51.1 °F 50.0 °F 96% 29.75 in - NNW 6.9 mph - N/A   Unknown
11:56 PM 51.1 °F 48.9 °F 92% 29.75 in - North 8.1 mph - N/A   Unknown